When you browse on this site, cookies collect data to enhance your experience and personalize the content and advertising you see.
Visit our Privacy Policy to learn more. By continuing to use the site, you agree to this use of cookies and data.
  • In Deutschland
  • Länderverzeichnis
  • Für 7 Tage
  • Wassertemperatur
  • Satellitenkarten
  • Wetterkarte
  • Widgets
  • user-avatar
    Anmelden

    Stündliche Wetter Bad Homburg vor der Höhe

    Heute, 21 Februar, Donnerstag

    Zeit Temperatur Niederschläge Wind Luftdruck Luftfeuchtigkeit
    00:00 +5°C° 0 mm 1 m/S 745 mmHg 86%
    01:00 +5°C° 0 mm 1 m/S 745 mmHg 88%
    02:00 +5°C° 0 mm 1 m/S 745 mmHg 89%
    03:00 +5°C° 0 mm 1 m/S 745 mmHg 90%
    04:00 +5°C° 0 mm 1 m/S 745 mmHg 92%
    05:00 +4°C° 0 mm 1 m/S 745 mmHg 92%
    06:00 +4°C° 0 mm 1 m/S 745 mmHg 93%
    07:00 +4°C° 0 mm 1 m/S 745 mmHg 93%
    08:00 +5°C° 0 mm 1 m/S 745 mmHg 89%
    09:00 +6°C° 0 mm 1 m/S 746 mmHg 86%
    10:00 +8°C° 0 mm 1 m/S 746 mmHg 82%
    11:00 +9°C° 0 mm 1 m/S 746 mmHg 77%
    12:00 +9°C° 0 mm 2 m/S 746 mmHg 71%
    13:00 +12°C° 0 mm 2 m/S 746 mmHg 66%
    14:00 +12°C° 0 mm 2 m/S 746 mmHg 65%
    15:00 +12°C° 0 mm 2 m/S 746 mmHg 65%
    16:00 +12°C° 0 mm 2 m/S 746 mmHg 64%
    17:00 +10°C° 0.1 mm 2 m/S 746 mmHg 70%
    18:00 +10°C° 0.1 mm 1 m/S 746 mmHg 76%
    19:00 +9°C° 0.1 mm 1 m/S 746 mmHg 82%
    20:00 +9°C° 0.1 mm 1 m/S 747 mmHg 84%
    21:00 +8°C° 0.1 mm 1 m/S 747 mmHg 85%
    22:00 +8°C° 0.1 mm 1 m/S 747 mmHg 87%
    23:00 +7°C° 0 mm 2 m/S 747 mmHg 87%

    Morgen, 22 Februar, Freitag

    Zeit Temperatur Niederschläge Wind Luftdruck Luftfeuchtigkeit
    00:00 +7°C° 0 mm 2 m/S 748 mmHg 86%
    01:00 +7°C° 0 mm 2 m/S 748 mmHg 86%
    02:00 +7°C° 0 mm 2 m/S 748 mmHg 87%
    03:00 +7°C° 0 mm 2 m/S 748 mmHg 88%
    04:00 +7°C° 0 mm 2 m/S 748 mmHg 89%
    05:00 +8°C° 0 mm 1 m/S 749 mmHg 91%
    06:00 +8°C° 0 mm 1 m/S 749 mmHg 92%
    07:00 +7°C° 0 mm 1 m/S 749 mmHg 94%
    08:00 +8°C° 0 mm 1 m/S 750 mmHg 91%
    09:00 +9°C° 0 mm 1 m/S 750 mmHg 88%
    10:00 +10°C° 0 mm 1 m/S 751 mmHg 85%
    11:00 +10°C° 0 mm 1 m/S 751 mmHg 81%
    12:00 +9°C° 0 mm 2 m/S 751 mmHg 76%
    13:00 +10°C° 0 mm 2 m/S 751 mmHg 71%
    14:00 +10°C° 0 mm 2 m/S 752 mmHg 69%
    15:00 +12°C° 0 mm 2 m/S 752 mmHg 66%
    16:00 +12°C° 0 mm 2 m/S 752 mmHg 63%
    17:00 +10°C° 0 mm 2 m/S 752 mmHg 69%
    18:00 +9°C° 0 mm 2 m/S 752 mmHg 75%
    19:00 +7°C° 0 mm 2 m/S 752 mmHg 80%
    20:00 +7°C° 0 mm 2 m/S 752 mmHg 82%
    21:00 +6°C° 0 mm 2 m/S 753 mmHg 84%
    22:00 +5°C° 0 mm 2 m/S 753 mmHg 85%
    23:00 +5°C° 0 mm 2 m/S 753 mmHg 85%

    übermorgen, 23 Februar, Samstag

    Zeit Temperatur Niederschläge Wind Luftdruck Luftfeuchtigkeit
    00:00 +4°C° 0 mm 2 m/S 753 mmHg 85%
    01:00 +3°C° 0 mm 2 m/S 753 mmHg 85%
    02:00 +3°C° 0 mm 2 m/S 753 mmHg 85%
    03:00 +2°C° 0 mm 2 m/S 753 mmHg 85%
    04:00 +2°C° 0 mm 2 m/S 753 mmHg 85%
    05:00 +2°C° 0 mm 2 m/S 753 mmHg 84%
    06:00 +1°C° 0 mm 2 m/S 753 mmHg 83%
    07:00 +1°C° 0 mm 2 m/S 753 mmHg 81%
    08:00 +2°C° 0 mm 2 m/S 753 mmHg 74%
    09:00 +3°C° 0 mm 2 m/S 754 mmHg 67%
    10:00 +3°C° 0 mm 2 m/S 754 mmHg 60%
    11:00 +5°C° 0 mm 2 m/S 754 mmHg 55%
    12:00 +5°C° 0 mm 3 m/S 754 mmHg 49%
    13:00 +8°C° 0 mm 3 m/S 754 mmHg 43%
    14:00 +8°C° 0 mm 3 m/S 753 mmHg 41%
    15:00 +8°C° 0 mm 3 m/S 753 mmHg 39%
    16:00 +9°C° 0 mm 3 m/S 753 mmHg 37%
    17:00 +8°C° 0 mm 2 m/S 753 mmHg 39%
    18:00 +6°C° 0 mm 2 m/S 753 mmHg 42%
    19:00 +5°C° 0 mm 2 m/S 753 mmHg 45%
    20:00 +4°C° 0 mm 2 m/S 753 mmHg 45%
    21:00 +4°C° 0 mm 2 m/S 753 mmHg 46%
    22:00 +3°C° 0 mm 2 m/S 753 mmHg 46%
    23:00 +3°C° 0 mm 2 m/S 753 mmHg 46%

    24 Februar, Sonntag

    Zeit Temperatur Niederschläge Wind Luftdruck Luftfeuchtigkeit
    00:00 +2°C° 0 mm 2 m/S 753 mmHg 46%
    01:00 +2°C° 0 mm 2 m/S 753 mmHg 46%
    02:00 +3°C° 0 mm 1 m/S 753 mmHg 46%
    03:00 +2°C° 0 mm 1 m/S 753 mmHg 46%
    04:00 +2°C° 0 mm 1 m/S 753 mmHg 46%
    05:00 +2°C° 0 mm 1 m/S 753 mmHg 45%
    06:00 +2°C° 0 mm 1 m/S 753 mmHg 45%
    07:00 +2°C° 0 mm 1 m/S 753 mmHg 44%
    08:00 +3°C° 0 mm 1 m/S 753 mmHg 41%
    09:00 +4°C° 0 mm 1 m/S 754 mmHg 37%
    10:00 +5°C° 0 mm 1 m/S 754 mmHg 34%
    11:00 +7°C° 0 mm 1 m/S 754 mmHg 32%
    12:00 +8°C° 0 mm 1 m/S 754 mmHg 30%
    13:00 +10°C° 0 mm 1 m/S 753 mmHg 28%
    14:00 +11°C° 0 mm 1 m/S 753 mmHg 29%
    15:00 +11°C° 0 mm 1 m/S 753 mmHg 31%
    16:00 +12°C° 0 mm 1 m/S 753 mmHg 33%
    17:00 +10°C° 0 mm 1 m/S 753 mmHg 38%
    18:00 +9°C° 0 mm 1 m/S 753 mmHg 43%
    19:00 +7°C° 0 mm 1 m/S 753 mmHg 48%
    20:00 +7°C° 0 mm 1 m/S 753 mmHg 51%
    21:00 +6°C° 0 mm 1 m/S 753 mmHg 54%
    22:00 +6°C° 0 mm 1 m/S 753 mmHg 56%
    23:00 +6°C° 0 mm 1 m/S 753 mmHg 59%

    25 Februar, Montag

    Zeit Temperatur Niederschläge Wind Luftdruck Luftfeuchtigkeit
    00:00 +5°C° 0 mm 1 m/S 753 mmHg 61%
    01:00 +5°C° 0 mm 1 m/S 753 mmHg 63%
    02:00 +5°C° 0 mm 1 m/S 753 mmHg 65%
    03:00 +5°C° 0 mm 1 m/S 753 mmHg 67%
    04:00 +4°C° 0 mm 1 m/S 753 mmHg 70%
    05:00 +4°C° 0 mm 1 m/S 753 mmHg 71%
    06:00 +4°C° 0 mm 1 m/S 753 mmHg 72%
    07:00 +4°C° 0 mm 1 m/S 753 mmHg 73%
    08:00 +6°C° 0 mm 1 m/S 753 mmHg 69%
    09:00 +7°C° 0 mm 1 m/S 753 mmHg 66%
    10:00 +8°C° 0 mm 1 m/S 754 mmHg 62%
    11:00 +10°C° 0 mm 1 m/S 753 mmHg 59%
    12:00 +12°C° 0 mm 1 m/S 753 mmHg 55%
    13:00 +13°C° 0 mm 2 m/S 753 mmHg 51%
    14:00 +14°C° 0 mm 2 m/S 753 mmHg 51%
    15:00 +14°C° 0 mm 2 m/S 752 mmHg 51%
    16:00 +15°C° 0 mm 2 m/S 752 mmHg 52%
    17:00 +13°C° 0 mm 2 m/S 752 mmHg 58%
    18:00 +12°C° 0 mm 2 m/S 752 mmHg 64%
    19:00 +9°C° 0 mm 2 m/S 752 mmHg 70%
    20:00 +8°C° 0 mm 2 m/S 752 mmHg 71%
    21:00 +7°C° 0 mm 2 m/S 752 mmHg 72%
    22:00 +7°C° 0 mm 2 m/S 752 mmHg 72%
    23:00 +6°C° 0 mm 2 m/S 752 mmHg 73%

    26 Februar, Dienstag

    Zeit Temperatur Niederschläge Wind Luftdruck Luftfeuchtigkeit
    00:00 +6°C° 0 mm 2 m/S 752 mmHg 74%
    01:00 +5°C° 0 mm 2 m/S 752 mmHg 74%
    02:00 +6°C° 0 mm 1 m/S 752 mmHg 75%
    03:00 +5°C° 0 mm 1 m/S 751 mmHg 76%
    04:00 +5°C° 0 mm 1 m/S 751 mmHg 78%
    05:00 +5°C° 0 mm 1 m/S 751 mmHg 79%
    06:00 +4°C° 0 mm 1 m/S 751 mmHg 80%
    07:00 +4°C° 0 mm 1 m/S 751 mmHg 81%
    08:00 +6°C° 0 mm 1 m/S 751 mmHg 75%
    09:00 +7°C° 0 mm 1 m/S 751 mmHg 70%
    10:00 +8°C° 0 mm 1 m/S 751 mmHg 64%
    11:00 +10°C° 0 mm 1 m/S 751 mmHg 59%
    12:00 +12°C° 0 mm 1 m/S 751 mmHg 53%
    13:00 +13°C° 0 mm 1 m/S 751 mmHg 48%
    14:00 +14°C° 0 mm 1 m/S 750 mmHg 47%
    15:00 +14°C° 0 mm 1 m/S 750 mmHg 46%
    16:00 +15°C° 0 mm 1 m/S 750 mmHg 45%
    17:00 +13°C° 0 mm 1 m/S 750 mmHg 50%
    18:00 +11°C° 0 mm 0 m/S 750 mmHg 56%
    19:00 +9°C° 0 mm 0 m/S 750 mmHg 61%
    20:00 +9°C° 0 mm 0 m/S 749 mmHg 63%
    21:00 +8°C° 0 mm 0 m/S 749 mmHg 66%
    22:00 +9°C° 0 mm 1 m/S 749 mmHg 68%
    23:00 +8°C° 0 mm 1 m/S 749 mmHg 70%
    Mehr zeigen